Location: Unspecified
(51.5147°N, 7.4673°E)
Time: 18:53:05
(UTC+01:00)

Vanguard 2 - All Passes

Search period start: 16 February 2026 00:00
Search period end: 26 February 2026 00:00
Orbit: 553 x 2897 km, 32.9° (Epoch: 15 February)

Date Brightness Start Highest point End Pass type
(mag) Time Alt. Az. Time Alt. Az. Time Alt. Az.
23 Feb - 04:22:38 10° S 04:23:32 10° S 04:24:24 10° SSE visible
23 Feb - 06:29:35 10° SSW 06:30:28 10° S 06:31:19 10° S visible
24 Feb - 04:32:09 10° SSW 04:35:12 13° S 04:37:50 10° SSE visible
24 Feb - 06:41:02 10° SSW 06:42:05 10° SSW 06:43:03 10° S visible
25 Feb - 02:38:43 10° SSE 02:39:26 10° SSE 02:40:07 10° SSE visible
25 Feb - 04:42:50 10° SSW 04:46:52 14° S 04:50:11 10° SSE visible
25 Feb - 06:53:22 10° SSW 06:53:38 10° SSW 06:53:55 10° SSW visible
